Home > Time Zones > World Clock > Weather > Russia > Perm > Past weeks

Flag for Russia Weather past 2 weeks in Perm, Russia

Now
61 °F

Overcast.


Feels Like: 61 °F
Forecast: 54 / 77 °F
Wind: 3 mph from North

Location: Perm'/Bolshoe Savino

Current Time: Aug 21, 2014 at 8:32:59 AM

Latest Report: Aug 21, 2014 at 8:00 AM


Visibility: 6 mi

Pressure: 29.98 "Hg

Humidity: 100%

Dew point: 61 °F

Location of PermLocation

Historic Weather in Perm — Graph

°F

Perm temperature yesterday

Maximum temperature yesterday: 68 °F (at 4:30 PM)
Minimum temperature yesterday: 55 °F (at 4:00 AM)
Average temperature yesterday: 62 °F

Past Weeks' High & Low Weather Summary

 TemperatureHumidityPressure
High86 °F (Aug 8, 5:00 PM)100% (Aug 6, 7:30 AM)30.15 "Hg (Aug 6, 7:30 AM)
Low41 °F (Aug 14, 7:00 AM)33% (Aug 13, 6:30 PM)29.45 "Hg (Aug 11, 4:30 AM)
Average66 °F81%29.85 "Hg
* Reported Aug 6 7:30 AM — Aug 21 7:30 AM, Perm, Weather by CustomWeather, © 2014

Note: Actual official high and low records may vary slightly from our data, if they occured in-between our weather recording intervals... More about our weather records

Advertising

Perm weather history for previous 24 hours

 ConditionsComfort  
Time TempWeatherWind HumidityBarometerVisibility
7:30 AM
Aug 21
61 °FLow clouds.3 mph94%29.98 "Hg5 mi
7:00 AM61 °FFog.1 mph94%29.98 "Hg3 mi
6:30 AM61 °FDrizzle. Fog.3 mph94%29.98 "Hg2 mi
6:00 AM61 °FDrizzle. Fog.3 mph94%29.98 "Hg1 mi
5:30 AM61 °FDrizzle. Fog.3 mph94%29.98 "Hg1 mi
5:00 AM61 °FDrizzle. Fog.3 mph94%29.98 "Hg2 mi
4:30 AM61 °FDrizzle. Low clouds.3 mph94%29.98 "Hg4 mi
4:00 AM61 °FLow clouds.3 mph94%29.98 "Hg4 mi
3:30 AM61 °FLow clouds.3 mph94%29.98 "Hg5 mi
3:00 AM61 °FLow clouds.6 mph100%29.98 "Hg5 mi
2:30 AM63 °FOvercast.3 mph94%29.95 "Hg6 mi
2:00 AM63 °FOvercast.3 mph94%29.95 "Hg4 mi
1:30 AM63 °FLow clouds.3 mph94%29.95 "Hg5 mi
1:00 AM63 °FOvercast.1 mph94%29.95 "Hg4 mi
12:30 AM63 °FMostly cloudy.3 mph94%29.95 "Hg4 mi
12:00 AM63 °FFog.3 mph100%29.98 "Hg3 mi
11:30 PM
Aug 20
64 °FMostly cloudy.1 mph94%29.98 "Hg4 mi
11:00 PM64 °FMostly cloudy.1 mph94%29.98 "Hg4 mi
10:30 PM64 °FMostly cloudy.1 mph94%29.98 "Hg5 mi
10:00 PM64 °FMostly cloudy.1 mph94%29.98 "HgN/A
9:30 PM66 °FMostly cloudy.3 mph88%29.98 "HgN/A
9:00 PM66 °FMostly cloudy.1 mph94%29.95 "HgN/A
8:30 PM66 °FBroken clouds.3 mph88%29.95 "HgN/A
8:00 PM66 °FSunny.3 mph94%29.95 "Hg10 mi
7:30 PM68 °FPassing clouds.3 mph88%29.95 "HgN/A
7:00 PM68 °FSunny.3 mph88%29.95 "Hg10 mi
6:30 PM66 °FOvercast.3 mph94%29.95 "Hg6 mi
6:00 PM66 °FSunny.3 mph94%29.95 "Hg10 mi
5:30 PM68 °FSunny.1 mph88%29.95 "Hg10 mi
5:00 PM68 °FSunny.3 mph83%29.95 "Hg10 mi
4:30 PM68 °FOvercast.3 mph83%29.95 "HgN/A
4:00 PM66 °FMore clouds than sun.3 mph88%29.95 "HgN/A
3:30 PM64 °FMore clouds than sun.6 mph94%29.98 "HgN/A
3:00 PM64 °FMore clouds than sun.6 mph94%29.98 "HgN/A
2:30 PM64 °FMore clouds than sun.8 mph88%29.98 "Hg6 mi
2:00 PM64 °FFog.8 mph88%29.98 "Hg2 mi
1:30 PM63 °FMore clouds than sun.6 mph94%29.98 "Hg4 mi
1:00 PM63 °FMostly cloudy.6 mph94%30.01 "Hg6 mi
12:30 PM61 °FMore clouds than sun.6 mph100%30.01 "Hg4 mi
12:00 PM61 °FLight rain. Mostly cloudy.3 mph94%30.01 "Hg6 mi
11:30 AM61 °FMostly cloudy.3 mph94%30.01 "HgN/A
11:00 AM61 °FSprinkles. Cloudy.6 mph94%30.01 "HgN/A
10:30 AM61 °FCloudy.8 mph94%30.01 "HgN/A
10:00 AM61 °FSprinkles. Mostly cloudy.8 mph94%30.01 "HgN/A
9:30 AM59 °FSprinkles. More clouds than sun.6 mph100%30.04 "HgN/A
9:00 AM59 °FSunny.3 mph100%30.04 "Hg10 mi
8:30 AM59 °FSprinkles. More clouds than sun.3 mph100%30.04 "HgN/A
8:00 AM59 °FSprinkles. More clouds than sun.3 mph94%30.07 "HgN/A
Weather by CustomWeather, © 2014

See weather overviewHow to use our weather pages